Overview Statistics Trail Chart Weather Telemetry Raw packets
 

This is the latest recevied weather packets stored in our database for station/object DL5DI-H. If no packets are shown the sender has not sent any weather packets the latest 10 day(s).

<< 22 23 24 25 26 27 28 >>
Time Temp. Humidity Pressure Rain* Wind** Luminosity Snow
1788361801 25.56° C 43% 1021.3 hPa 0 mm - - -
1788361202 25.56° C 44% 1021.3 hPa 0 mm - - -
1788360602 25° C 45% 1021.5 hPa 0 mm - - -
1788360000 24.44° C 45% 1021.4 hPa 0 mm - - -
1788359402 24.44° C 45% 1021.4 hPa 0 mm - - -
1788358801 24.44° C 45% 1021.5 hPa 0 mm - - -
1788358202 24.44° C 44% 1021.4 hPa 0 mm - - -
1788357602 24.44° C 45% 1021.4 hPa 0 mm - - -
1788357003 24.44° C 46% 1021.4 hPa 0 mm - - -
1788356401 23.89° C 45% 1021.4 hPa 0 mm - - -
1788355801 24.44° C 44% 1021.3 hPa 0 mm - - -
1788355202 25° C 43% 1021.3 hPa 0 mm - - -
1788354600 24.44° C 42% 1021.4 hPa 0 mm - - -
1788354002 24.44° C 43% 1021.5 hPa 0 mm - - -
1788353401 24.44° C 41% 1021.6 hPa 0 mm - - -
1788352800 23.89° C 41% 1021.6 hPa 0 mm - - -
1788352202 23.89° C 43% 1021.5 hPa 0 mm - - -
1788351602 23.33° C 44% 1021.3 hPa 0 mm - - -
1788351002 23.33° C 45% 1021.5 hPa 0 mm - - -
1788350401 23.33° C 46% 1021.5 hPa 0 mm - - -
1788349802 23.33° C 46% 1021.4 hPa 0 mm - - -
1788349202 22.78° C 47% 1021.6 hPa 0 mm - - -
1788348601 22.22° C 50% 1021.6 hPa 0 mm - - -
1788348002 22.22° C 50% 1021.7 hPa 0 mm - - -
1788347401 22.22° C 50% 1021.7 hPa 0 mm - - -

* Rain latest hour (hover to see other rain measurements)
** Current wind speed in m/s (hover to see current wind gust speed)